Location: Gollag?dem
(16.8053°N, 80.8024°E)
Time: 17:55:33
(UTC+00:00)

Ariane Rocket - Pass Details

Date: 13 August 2020
Orbit: 760 x 770 km, 98.7° (Epoch: 18 September)

Event Time Altitude Azimuth Distance (km) Brightness Sun altitude
Exits shadow 13:41:41 12° 109° (ESE) 2,144 4.6 -9.7°
Maximum altitude 13:44:27 18° 73° (ENE) 1,790 4.5 -10.3°
Drops below altitude 10° 13:47:50 10° 30° (NNE) 2,292 5.4 -11.1°
Sets 13:50:47 0° 12° (NNE) 3,217 6.3 -11.8°
